contact:dominique.lefevre@mio.osupytheas.fr, maurice.libes@osupytheas.fr, didier.mallarino@osupytheas.fr
Project:EMSO http://www.emso-fr.org/EMSO-France
Depth: 2436.0 m
Title:EMSO Ligure Ouest : Data MII capteur MICROCAT
DateTime_Computer,Latitude,Longitude,Temperature,Conductivity,Pressure,DateTime_Instrument
DateTime_Computer,Latitude,Longitude,degC,S m-1,dbar,DateTime_Instrument
2019-06-17T00:02:20Z,42.805,6.029,13.2953,4.59953,2469.76,2019-6-17T02:02:36Z
2019-06-17T00:05:23Z,42.805,6.029,13.2948,4.59952,2469.783,2019-6-17T02:05:39Z
2019-06-17T00:08:26Z,42.805,6.029,13.2953,4.59952,2469.737,2019-6-17T02:08:42Z
2019-06-17T00:11:29Z,42.805,6.029,13.2952,4.59951,2469.783,2019-6-17T02:11:45Z
2019-06-17T00:14:31Z,42.805,6.029,13.2952,4.59951,2469.737,2019-6-17T02:14:48Z
2019-06-17T00:17:34Z,42.805,6.029,13.2952,4.59951,2469.797,2019-6-17T02:17:51Z
2019-06-17T00:20:37Z,42.805,6.029,13.2953,4.59952,2469.773,2019-6-17T02:20:54Z
2019-06-17T00:23:40Z,42.805,6.029,13.2953,4.59951,2469.737,2019-6-17T02:23:57Z
2019-06-17T00:26:43Z,42.805,6.029,13.2949,4.59951,2469.75,2019-6-17T02:27:00Z
2019-06-17T00:29:46Z,42.805,6.029,13.2952,4.59951,2469.75,2019-6-17T02:30:02Z
2019-06-17T00:32:49Z,42.805,6.029,13.2951,4.59951,2469.75,2019-6-17T02:33:05Z
2019-06-17T00:35:52Z,42.805,6.029,13.2955,4.59951,2469.76,2019-6-17T02:36:08Z
2019-06-17T00:38:55Z,42.805,6.029,13.2948,4.59951,2469.783,2019-6-17T02:39:11Z
2019-06-17T00:41:58Z,42.805,6.029,13.2951,4.59951,2469.76,2019-6-17T02:42:14Z
2019-06-17T00:45:01Z,42.805,6.029,13.2953,4.59951,2469.773,2019-6-17T02:45:17Z
2019-06-17T00:48:04Z,42.805,6.029,13.2953,4.59951,2469.773,2019-6-17T02:48:20Z
2019-06-17T00:51:07Z,42.805,6.029,13.2952,4.59951,2469.773,2019-6-17T02:51:23Z
2019-06-17T00:54:10Z,42.805,6.029,13.2950,4.59951,2469.773,2019-6-17T02:54:26Z
2019-06-17T00:57:13Z,42.805,6.029,13.2954,4.59951,2469.737,2019-6-17T02:57:29Z
2019-06-17T01:00:16Z,42.805,6.029,13.2952,4.59951,2469.75,2019-6-17T03:00:32Z
2019-06-17T01:03:19Z,42.805,6.029,13.2951,4.59952,2469.737,2019-6-17T03:03:35Z
2019-06-17T01:06:22Z,42.805,6.029,13.2953,4.59951,2469.76,2019-6-17T03:06:38Z
2019-06-17T01:09:25Z,42.805,6.029,13.2952,4.59951,2469.76,2019-6-17T03:09:41Z
2019-06-17T01:12:28Z,42.805,6.029,13.2950,4.59951,2469.737,2019-6-17T03:12:44Z
2019-06-17T01:15:30Z,42.805,6.029,13.2949,4.59951,2469.737,2019-6-17T03:15:47Z
2019-06-17T01:18:33Z,42.805,6.029,13.2953,4.59951,2469.737,2019-6-17T03:18:50Z
2019-06-17T01:21:36Z,42.805,6.029,13.2952,4.59951,2469.737,2019-6-17T03:21:53Z
2019-06-17T01:24:39Z,42.805,6.029,13.2950,4.59951,2469.713,2019-6-17T03:24:56Z
2019-06-17T01:27:42Z,42.805,6.029,13.2956,4.59951,2469.773,2019-6-17T03:27:58Z
2019-06-17T01:30:45Z,42.805,6.029,13.2955,4.59951,2469.713,2019-6-17T03:31:01Z
2019-06-17T01:33:48Z,42.805,6.029,13.2952,4.59951,2469.76,2019-6-17T03:34:04Z
2019-06-17T01:36:51Z,42.805,6.029,13.2953,4.59951,2469.713,2019-6-17T03:37:07Z
2019-06-17T01:39:54Z,42.805,6.029,13.2950,4.59951,2469.76,2019-6-17T03:40:10Z
2019-06-17T01:42:57Z,42.805,6.029,13.2952,4.59951,2469.727,2019-6-17T03:43:13Z
2019-06-17T01:46:00Z,42.805,6.029,13.2951,4.59951,2469.713,2019-6-17T03:46:16Z
2019-06-17T01:49:03Z,42.805,6.029,13.2949,4.59951,2469.713,2019-6-17T03:49:19Z
2019-06-17T01:52:06Z,42.805,6.029,13.2954,4.59951,2469.737,2019-6-17T03:52:22Z
2019-06-17T01:55:09Z,42.805,6.029,13.2951,4.59951,2469.75,2019-6-17T03:55:25Z
2019-06-17T01:58:12Z,42.805,6.029,13.2950,4.59951,2469.75,2019-6-17T03:58:28Z
2019-06-17T02:01:15Z,42.805,6.029,13.2951,4.59951,2469.737,2019-6-17T04:01:31Z
2019-06-17T02:04:18Z,42.805,6.029,13.2952,4.59952,2469.713,2019-6-17T04:04:34Z
2019-06-17T02:07:21Z,42.805,6.029,13.2952,4.59951,2469.704,2019-6-17T04:07:37Z
2019-06-17T02:10:24Z,42.805,6.029,13.2950,4.59951,2469.76,2019-6-17T04:10:40Z
2019-06-17T02:13:26Z,42.805,6.029,13.2953,4.59951,2469.737,2019-6-17T04:13:43Z
2019-06-17T02:16:29Z,42.805,6.029,13.2956,4.59952,2469.713,2019-6-17T04:16:46Z
2019-06-17T02:19:32Z,42.805,6.029,13.2951,4.59951,2469.727,2019-6-17T04:19:49Z
2019-06-17T02:22:35Z,42.805,6.029,13.2954,4.59951,2469.75,2019-6-17T04:22:52Z
2019-06-17T02:25:38Z,42.805,6.029,13.2953,4.59950,2469.713,2019-6-17T04:25:55Z
2019-06-17T02:28:41Z,42.805,6.029,13.2953,4.59951,2469.75,2019-6-17T04:28:57Z
2019-06-17T02:31:44Z,42.805,6.029,13.2952,4.59951,2469.737,2019-6-17T04:32:00Z
2019-06-17T02:34:47Z,42.805,6.029,13.2953,4.59951,2469.737,2019-6-17T04:35:03Z
2019-06-17T02:37:50Z,42.805,6.029,13.2953,4.59951,2469.713,2019-6-17T04:38:06Z
2019-06-17T02:40:53Z,42.805,6.029,13.2954,4.59951,2469.75,2019-6-17T04:41:09Z
2019-06-17T02:43:56Z,42.805,6.029,13.2950,4.59951,2469.713,2019-6-17T04:44:12Z
2019-06-17T02:46:59Z,42.805,6.029,13.2953,4.59951,2469.773,2019-6-17T04:47:15Z
2019-06-17T02:50:02Z,42.805,6.029,13.2950,4.59951,2469.737,2019-6-17T04:50:18Z
2019-06-17T02:53:05Z,42.805,6.029,13.2953,4.59951,2469.713,2019-6-17T04:53:21Z
2019-06-17T02:56:08Z,42.805,6.029,13.2952,4.59951,2469.727,2019-6-17T04:56:24Z
2019-06-17T02:59:11Z,42.805,6.029,13.2952,4.59951,2469.75,2019-6-17T04:59:27Z
2019-06-17T03:02:14Z,42.805,6.029,13.2953,4.59952,2469.75,2019-6-17T05:02:30Z
2019-06-17T03:05:17Z,42.805,6.029,13.2950,4.59951,2469.737,2019-6-17T05:05:33Z
2019-06-17T03:08:20Z,42.805,6.029,13.2949,4.59951,2469.75,2019-6-17T05:08:36Z
2019-06-17T03:11:23Z,42.805,6.029,13.2952,4.59951,2469.76,2019-6-17T05:11:39Z
2019-06-17T03:14:25Z,42.805,6.029,13.2951,4.59951,2469.783,2019-6-17T05:14:42Z
2019-06-17T03:17:28Z,42.805,6.029,13.2951,4.59951,2469.773,2019-6-17T05:17:45Z
2019-06-17T03:20:31Z,42.805,6.029,13.2952,4.59951,2469.737,2019-6-17T05:20:48Z
2019-06-17T03:23:34Z,42.805,6.029,13.2954,4.59951,2469.727,2019-6-17T05:23:51Z
2019-06-17T03:26:37Z,42.805,6.029,13.2954,4.59951,2469.76,2019-6-17T05:26:53Z
2019-06-17T03:29:40Z,42.805,6.029,13.2951,4.59952,2469.75,2019-6-17T05:29:56Z
2019-06-17T03:32:43Z,42.805,6.029,13.2953,4.59951,2469.76,2019-6-17T05:32:59Z
2019-06-17T03:35:46Z,42.805,6.029,13.2950,4.59951,2469.737,2019-6-17T05:36:02Z
2019-06-17T03:38:49Z,42.805,6.029,13.2952,4.59951,2469.76,2019-6-17T05:39:05Z
2019-06-17T03:41:52Z,42.805,6.029,13.2951,4.59952,2469.783,2019-6-17T05:42:08Z
2019-06-17T03:44:55Z,42.805,6.029,13.2948,4.59951,2469.76,2019-6-17T05:45:11Z
2019-06-17T03:47:58Z,42.805,6.029,13.2953,4.59951,2469.76,2019-6-17T05:48:14Z
2019-06-17T03:51:01Z,42.805,6.029,13.2951,4.59951,2469.75,2019-6-17T05:51:17Z
2019-06-17T03:54:04Z,42.805,6.029,13.2949,4.59954,2469.76,2019-6-17T05:54:20Z
2019-06-17T03:57:07Z,42.805,6.029,13.2952,4.59951,2469.773,2019-6-17T05:57:23Z
2019-06-17T04:00:10Z,42.805,6.029,13.2952,4.59951,2469.76,2019-6-17T06:00:26Z
2019-06-17T04:03:13Z,42.805,6.029,13.2952,4.59951,2469.783,2019-6-17T06:03:29Z
2019-06-17T04:06:16Z,42.805,6.029,13.2952,4.59951,2469.783,2019-6-17T06:06:32Z
2019-06-17T04:09:18Z,42.805,6.029,13.2952,4.59951,2469.797,2019-6-17T06:09:35Z
2019-06-17T04:12:21Z,42.805,6.029,13.2954,4.59951,2469.806,2019-6-17T06:12:38Z
2019-06-17T04:15:24Z,42.805,6.029,13.2949,4.59951,2469.783,2019-6-17T06:15:41Z
2019-06-17T04:18:27Z,42.805,6.029,13.2953,4.59952,2469.806,2019-6-17T06:18:44Z
2019-06-17T04:21:30Z,42.805,6.029,13.2952,4.59951,2469.806,2019-6-17T06:21:47Z
2019-06-17T04:24:33Z,42.805,6.029,13.2952,4.59951,2469.844,2019-6-17T06:24:49Z
2019-06-17T04:27:36Z,42.805,6.029,13.2953,4.59952,2469.806,2019-6-17T06:27:52Z
2019-06-17T04:30:39Z,42.805,6.029,13.2953,4.59952,2469.821,2019-6-17T06:30:55Z
2019-06-17T04:33:42Z,42.805,6.029,13.2955,4.59951,2469.783,2019-6-17T06:33:58Z
2019-06-17T04:36:45Z,42.805,6.029,13.2950,4.59952,2469.797,2019-6-17T06:37:01Z
2019-06-17T04:39:48Z,42.805,6.029,13.2953,4.59951,2469.797,2019-6-17T06:40:04Z
2019-06-17T04:42:51Z,42.805,6.029,13.2953,4.59953,2469.821,2019-6-17T06:43:07Z
2019-06-17T04:45:54Z,42.805,6.029,13.2949,4.59951,2469.806,2019-6-17T06:46:10Z
2019-06-17T04:48:57Z,42.805,6.029,13.2952,4.59951,2469.821,2019-6-17T06:49:13Z
2019-06-17T04:52:00Z,42.805,6.029,13.2950,4.59951,2469.83,2019-6-17T06:52:16Z
2019-06-17T04:55:03Z,42.805,6.029,13.2950,4.59951,2469.867,2019-6-17T06:55:19Z
2019-06-17T04:58:06Z,42.805,6.029,13.2952,4.59952,2469.806,2019-6-17T06:58:22Z
2019-06-17T05:01:09Z,42.805,6.029,13.2948,4.59951,2469.806,2019-6-17T07:01:25Z
2019-06-17T05:04:12Z,42.805,6.029,13.2948,4.59951,2469.853,2019-6-17T07:04:28Z
2019-06-17T05:07:15Z,42.805,6.029,13.2949,4.59952,2469.83,2019-6-17T07:07:31Z
2019-06-17T05:10:17Z,42.805,6.029,13.2952,4.59952,2469.806,2019-6-17T07:10:34Z
2019-06-17T05:13:20Z,42.805,6.029,13.2953,4.59951,2469.83,2019-6-17T07:13:37Z
2019-06-17T05:16:23Z,42.805,6.029,13.2950,4.59951,2469.867,2019-6-17T07:16:40Z
2019-06-17T05:19:26Z,42.805,6.029,13.2952,4.59952,2469.844,2019-6-17T07:19:43Z
2019-06-17T05:22:29Z,42.805,6.029,13.2950,4.59951,2469.867,2019-6-17T07:22:45Z
2019-06-17T05:25:32Z,42.805,6.029,13.2948,4.59953,2469.867,2019-6-17T07:25:48Z
2019-06-17T05:28:35Z,42.805,6.029,13.2947,4.59951,2469.844,2019-6-17T07:28:51Z
2019-06-17T05:31:38Z,42.805,6.029,13.2949,4.59952,2469.867,2019-6-17T07:31:54Z
2019-06-17T05:34:41Z,42.805,6.029,13.2952,4.59951,2469.867,2019-6-17T07:34:57Z
2019-06-17T05:37:44Z,42.805,6.029,13.2953,4.59952,2469.89,2019-6-17T07:38:00Z
2019-06-17T05:40:47Z,42.805,6.029,13.2948,4.59953,2469.853,2019-6-17T07:41:03Z
2019-06-17T05:43:50Z,42.805,6.029,13.2950,4.59953,2469.867,2019-6-17T07:44:06Z
2019-06-17T05:46:53Z,42.805,6.029,13.2949,4.59953,2469.867,2019-6-17T07:47:09Z
2019-06-17T05:49:56Z,42.805,6.029,13.2955,4.59954,2469.853,2019-6-17T07:50:12Z
2019-06-17T05:52:59Z,42.805,6.029,13.2951,4.59954,2469.876,2019-6-17T07:53:15Z
2019-06-17T05:56:02Z,42.805,6.029,13.2952,4.59953,2469.806,2019-6-17T07:56:18Z
2019-06-17T05:59:05Z,42.805,6.029,13.2952,4.59952,2469.867,2019-6-17T07:59:21Z
2019-06-17T06:02:08Z,42.805,6.029,13.2951,4.59954,2469.853,2019-6-17T08:02:24Z
2019-06-17T06:05:11Z,42.805,6.029,13.2952,4.59952,2469.853,2019-6-17T08:05:27Z
2019-06-17T06:08:13Z,42.805,6.029,13.2955,4.59953,2469.876,2019-6-17T08:08:30Z
2019-06-17T06:11:16Z,42.805,6.029,13.2952,4.59952,2469.876,2019-6-17T08:11:33Z
2019-06-17T06:14:19Z,42.805,6.029,13.2951,4.59951,2469.853,2019-6-17T08:14:36Z
2019-06-17T06:17:22Z,42.805,6.029,13.2953,4.59953,2469.853,2019-6-17T08:17:39Z
2019-06-17T06:20:25Z,42.805,6.029,13.2953,4.59953,2469.876,2019-6-17T08:20:42Z
2019-06-17T06:23:28Z,42.805,6.029,13.2953,4.59953,2469.923,2019-6-17T08:23:44Z
2019-06-17T06:26:31Z,42.805,6.029,13.2948,4.59952,2469.876,2019-6-17T08:26:47Z
2019-06-17T06:29:34Z,42.805,6.029,13.2953,4.59954,2469.89,2019-6-17T08:29:50Z
2019-06-17T06:32:37Z,42.805,6.029,13.2955,4.59951,2469.876,2019-6-17T08:32:53Z
2019-06-17T06:35:40Z,42.805,6.029,13.2951,4.59952,2469.853,2019-6-17T08:35:56Z
2019-06-17T06:38:43Z,42.805,6.029,13.2950,4.59953,2469.89,2019-6-17T08:38:59Z
2019-06-17T06:41:46Z,42.805,6.029,13.2952,4.59953,2469.876,2019-6-17T08:42:02Z
2019-06-17T06:44:49Z,42.805,6.029,13.2952,4.59952,2469.876,2019-6-17T08:45:05Z
2019-06-17T06:47:52Z,42.805,6.029,13.2952,4.59952,2469.867,2019-6-17T08:48:08Z
2019-06-17T06:50:55Z,42.805,6.029,13.2952,4.59952,2469.853,2019-6-17T08:51:11Z
2019-06-17T06:53:58Z,42.805,6.029,13.2952,4.59954,2469.853,2019-6-17T08:54:14Z
2019-06-17T06:57:01Z,42.805,6.029,13.2953,4.59952,2469.867,2019-6-17T08:57:17Z
2019-06-17T07:00:04Z,42.805,6.029,13.2950,4.59952,2469.876,2019-6-17T09:00:20Z
2019-06-17T07:03:07Z,42.805,6.029,13.2955,4.59952,2469.867,2019-6-17T09:03:23Z
2019-06-17T07:06:09Z,42.805,6.029,13.2954,4.59953,2469.876,2019-6-17T09:06:26Z
2019-06-17T07:09:12Z,42.805,6.029,13.2952,4.59953,2469.853,2019-6-17T09:09:29Z
2019-06-17T07:12:15Z,42.805,6.029,13.2949,4.59952,2469.853,2019-6-17T09:12:32Z
2019-06-17T07:15:18Z,42.805,6.029,13.2949,4.59952,2469.853,2019-6-17T09:15:35Z
2019-06-17T07:18:21Z,42.805,6.029,13.2950,4.59953,2469.9,2019-6-17T09:18:38Z
2019-06-17T07:21:24Z,42.805,6.029,13.2953,4.59953,2469.867,2019-6-17T09:21:41Z
2019-06-17T07:24:27Z,42.805,6.029,13.2953,4.59956,2469.853,2019-6-17T09:24:43Z
2019-06-17T07:27:30Z,42.805,6.029,13.2949,4.59954,2469.853,2019-6-17T09:27:46Z
2019-06-17T07:30:33Z,42.805,6.029,13.2953,4.59952,2469.876,2019-6-17T09:30:49Z
2019-06-17T07:33:36Z,42.805,6.029,13.2953,4.59952,2469.867,2019-6-17T09:33:52Z
2019-06-17T07:36:39Z,42.805,6.029,13.2948,4.59951,2469.867,2019-6-17T09:36:55Z
2019-06-17T07:39:42Z,42.805,6.029,13.2951,4.59951,2469.83,2019-6-17T09:39:58Z
2019-06-17T07:42:45Z,42.805,6.029,13.2953,4.59951,2469.867,2019-6-17T09:43:01Z
2019-06-17T07:45:48Z,42.805,6.029,13.2952,4.59952,2469.867,2019-6-17T09:46:04Z
2019-06-17T07:48:51Z,42.805,6.029,13.2953,4.59951,2469.853,2019-6-17T09:49:07Z
2019-06-17T07:51:54Z,42.805,6.029,13.2953,4.59952,2469.83,2019-6-17T09:52:10Z
2019-06-17T07:54:57Z,42.805,6.029,13.2957,4.59951,2469.867,2019-6-17T09:55:13Z
2019-06-17T07:58:00Z,42.805,6.029,13.2950,4.59954,2469.83,2019-6-17T09:58:16Z
2019-06-17T08:01:03Z,42.805,6.029,13.2949,4.59952,2469.844,2019-6-17T10:01:19Z
2019-06-17T08:04:06Z,42.805,6.029,13.2957,4.59951,2469.876,2019-6-17T10:04:22Z
2019-06-17T08:07:08Z,42.805,6.029,13.2952,4.59951,2469.83,2019-6-17T10:07:25Z
2019-06-17T08:10:11Z,42.805,6.029,13.2957,4.59951,2469.821,2019-6-17T10:10:28Z
2019-06-17T08:13:14Z,42.805,6.029,13.2955,4.59951,2469.844,2019-6-17T10:13:31Z
2019-06-17T08:16:17Z,42.805,6.029,13.2952,4.59951,2469.83,2019-6-17T10:16:34Z
2019-06-17T08:19:20Z,42.805,6.029,13.2953,4.59953,2469.83,2019-6-17T10:19:37Z
2019-06-17T08:22:23Z,42.805,6.029,13.2953,4.59952,2469.806,2019-6-17T10:22:39Z
2019-06-17T08:25:26Z,42.805,6.029,13.2952,4.59951,2469.83,2019-6-17T10:25:42Z
2019-06-17T08:28:29Z,42.805,6.029,13.2952,4.59951,2469.83,2019-6-17T10:28:45Z
2019-06-17T08:31:32Z,42.805,6.029,13.2951,4.59951,2469.806,2019-6-17T10:31:48Z
2019-06-17T08:34:35Z,42.805,6.029,13.2953,4.59951,2469.83,2019-6-17T10:34:51Z
2019-06-17T08:37:38Z,42.805,6.029,13.2952,4.59951,2469.853,2019-6-17T10:37:54Z
2019-06-17T08:40:41Z,42.805,6.029,13.2948,4.59953,2469.83,2019-6-17T10:40:57Z
2019-06-17T08:43:44Z,42.805,6.029,13.2953,4.59951,2469.844,2019-6-17T10:44:00Z
2019-06-17T08:46:47Z,42.805,6.029,13.2951,4.59951,2469.806,2019-6-17T10:47:03Z
2019-06-17T08:49:50Z,42.805,6.029,13.2951,4.59951,2469.797,2019-6-17T10:50:06Z
2019-06-17T08:52:53Z,42.805,6.029,13.2950,4.59951,2469.821,2019-6-17T10:53:09Z
2019-06-17T08:55:56Z,42.805,6.029,13.2953,4.59952,2469.844,2019-6-17T10:56:12Z
2019-06-17T08:58:59Z,42.805,6.029,13.2952,4.59952,2469.806,2019-6-17T10:59:15Z
2019-06-17T09:02:02Z,42.805,6.029,13.2956,4.59951,2469.806,2019-6-17T11:02:18Z
2019-06-17T09:05:05Z,42.805,6.029,13.2952,4.59951,2469.806,2019-6-17T11:05:21Z
2019-06-17T09:08:08Z,42.805,6.029,13.2953,4.59952,2469.806,2019-6-17T11:08:24Z
2019-06-17T09:11:10Z,42.805,6.029,13.2951,4.59952,2469.83,2019-6-17T11:11:27Z
2019-06-17T09:14:13Z,42.805,6.029,13.2953,4.59951,2469.821,2019-6-17T11:14:30Z
2019-06-17T09:17:16Z,42.805,6.029,13.2952,4.59951,2469.783,2019-6-17T11:17:33Z
2019-06-17T09:20:19Z,42.805,6.029,13.2952,4.59954,2469.783,2019-6-17T11:20:36Z
2019-06-17T09:23:22Z,42.805,6.029,13.2952,4.59953,2469.797,2019-6-17T11:23:39Z
2019-06-17T09:26:25Z,42.805,6.029,13.2953,4.59951,2469.797,2019-6-17T11:26:41Z
2019-06-17T09:29:28Z,42.805,6.029,13.2953,4.59952,2469.783,2019-6-17T11:29:44Z
2019-06-17T09:32:31Z,42.805,6.029,13.2952,4.59951,2469.797,2019-6-17T11:32:47Z
2019-06-17T09:35:34Z,42.805,6.029,13.2952,4.59951,2469.783,2019-6-17T11:35:50Z
2019-06-17T09:38:37Z,42.805,6.029,13.2954,4.59951,2469.821,2019-6-17T11:38:53Z
2019-06-17T09:41:40Z,42.805,6.029,13.2948,4.59951,2469.806,2019-6-17T11:41:56Z
2019-06-17T09:44:43Z,42.805,6.029,13.2952,4.59951,2469.773,2019-6-17T11:44:59Z
2019-06-17T09:47:46Z,42.805,6.029,13.2948,4.59951,2469.821,2019-6-17T11:48:02Z
2019-06-17T09:50:49Z,42.805,6.029,13.2952,4.59951,2469.783,2019-6-17T11:51:05Z
2019-06-17T09:53:52Z,42.805,6.029,13.2947,4.59951,2469.76,2019-6-17T11:54:08Z
2019-06-17T09:56:55Z,42.805,6.029,13.2948,4.59951,2469.806,2019-6-17T11:57:11Z
2019-06-17T09:59:58Z,42.805,6.029,13.2947,4.59951,2469.783,2019-6-17T12:00:14Z
2019-06-17T10:03:01Z,42.805,6.029,13.2952,4.59951,2469.797,2019-6-17T12:03:17Z
2019-06-17T10:06:04Z,42.805,6.029,13.2951,4.59951,2469.783,2019-6-17T12:06:20Z
2019-06-17T10:09:07Z,42.805,6.029,13.2952,4.59951,2469.797,2019-6-17T12:09:23Z
2019-06-17T10:12:10Z,42.805,6.029,13.2948,4.59952,2469.773,2019-6-17T12:12:26Z
2019-06-17T10:15:12Z,42.805,6.029,13.2953,4.59951,2469.797,2019-6-17T12:15:29Z
2019-06-17T10:18:15Z,42.805,6.029,13.2951,4.59951,2469.75,2019-6-17T12:18:32Z
2019-06-17T10:21:18Z,42.805,6.029,13.2948,4.59952,2469.783,2019-6-17T12:21:35Z
2019-06-17T10:24:21Z,42.805,6.029,13.2948,4.59951,2469.737,2019-6-17T12:24:38Z
2019-06-17T10:27:24Z,42.805,6.029,13.2952,4.59951,2469.797,2019-6-17T12:27:41Z
2019-06-17T10:30:27Z,42.805,6.029,13.2952,4.59951,2469.76,2019-6-17T12:30:44Z
2019-06-17T10:33:30Z,42.805,6.029,13.2948,4.59950,2469.76,2019-6-17T12:33:46Z
2019-06-17T10:36:33Z,42.805,6.029,13.2953,4.59951,2469.76,2019-6-17T12:36:49Z
2019-06-17T10:39:36Z,42.805,6.029,13.2949,4.59951,2469.737,2019-6-17T12:39:52Z
2019-06-17T10:42:39Z,42.805,6.029,13.2952,4.59951,2469.75,2019-6-17T12:42:55Z
2019-06-17T10:45:42Z,42.805,6.029,13.2948,4.59952,2469.737,2019-6-17T12:45:58Z
2019-06-17T10:48:45Z,42.805,6.029,13.2953,4.59951,2469.76,2019-6-17T12:49:01Z
2019-06-17T10:51:48Z,42.805,6.029,13.2953,4.59951,2469.713,2019-6-17T12:52:04Z
2019-06-17T10:54:51Z,42.805,6.029,13.2948,4.59951,2469.737,2019-6-17T12:55:07Z
2019-06-17T10:57:54Z,42.805,6.029,13.2949,4.59951,2469.737,2019-6-17T12:58:10Z
2019-06-17T11:00:57Z,42.805,6.029,13.2949,4.59951,2469.76,2019-6-17T13:01:13Z
2019-06-17T11:04:00Z,42.805,6.029,13.2952,4.59950,2469.727,2019-6-17T13:04:16Z
2019-06-17T11:07:03Z,42.805,6.029,13.2949,4.59951,2469.773,2019-6-17T13:07:19Z
2019-06-17T11:10:06Z,42.805,6.029,13.2951,4.59951,2469.727,2019-6-17T13:10:22Z
2019-06-17T11:13:09Z,42.805,6.029,13.2954,4.59951,2469.737,2019-6-17T13:13:25Z
2019-06-17T11:16:12Z,42.805,6.029,13.2949,4.59951,2469.713,2019-6-17T13:16:28Z
2019-06-17T11:19:15Z,42.805,6.029,13.2950,4.59950,2469.713,2019-6-17T13:19:31Z
2019-06-17T11:22:17Z,42.805,6.029,13.2952,4.59951,2469.737,2019-6-17T13:22:34Z
2019-06-17T11:25:20Z,42.805,6.029,13.2952,4.59950,2469.76,2019-6-17T13:25:37Z
2019-06-17T11:28:23Z,42.805,6.029,13.2953,4.59951,2469.69,2019-6-17T13:28:40Z
2019-06-17T11:31:26Z,42.805,6.029,13.2949,4.59951,2469.737,2019-6-17T13:31:43Z
2019-06-17T11:34:29Z,42.805,6.029,13.2950,4.59951,2469.75,2019-6-17T13:34:46Z
2019-06-17T11:37:32Z,42.805,6.029,13.2951,4.59950,2469.75,2019-6-17T13:37:48Z
2019-06-17T11:40:35Z,42.805,6.029,13.2952,4.59949,2469.727,2019-6-17T13:40:51Z
2019-06-17T11:43:38Z,42.805,6.029,13.2946,4.59950,2469.737,2019-6-17T13:43:54Z
2019-06-17T11:46:41Z,42.805,6.029,13.2949,4.59950,2469.727,2019-6-17T13:46:57Z
2019-06-17T11:49:44Z,42.805,6.029,13.2953,4.59951,2469.704,2019-6-17T13:50:00Z
2019-06-17T11:52:47Z,42.805,6.029,13.2952,4.59950,2469.75,2019-6-17T13:53:03Z
2019-06-17T11:55:50Z,42.805,6.029,13.2950,4.59951,2469.737,2019-6-17T13:56:06Z
2019-06-17T11:58:53Z,42.805,6.029,13.2951,4.59949,2469.69,2019-6-17T13:59:09Z
2019-06-17T12:01:56Z,42.805,6.029,13.2951,4.59951,2469.704,2019-6-17T14:02:12Z
2019-06-17T12:04:59Z,42.805,6.029,13.2954,4.59951,2469.713,2019-6-17T14:05:15Z
2019-06-17T12:08:02Z,42.805,6.029,13.2955,4.59951,2469.69,2019-6-17T14:08:18Z
2019-06-17T12:11:05Z,42.805,6.029,13.2952,4.59950,2469.713,2019-6-17T14:11:21Z
2019-06-17T12:14:08Z,42.805,6.029,13.2952,4.59951,2469.713,2019-6-17T14:14:24Z
2019-06-17T12:17:11Z,42.805,6.029,13.2951,4.59950,2469.704,2019-6-17T14:17:27Z
2019-06-17T12:20:14Z,42.805,6.029,13.2950,4.59951,2469.68,2019-6-17T14:20:30Z
2019-06-17T12:23:17Z,42.805,6.029,13.2952,4.59949,2469.68,2019-6-17T14:23:33Z
2019-06-17T12:26:19Z,42.805,6.029,13.2953,4.59951,2469.69,2019-6-17T14:26:36Z
2019-06-17T12:29:22Z,42.805,6.029,13.2950,4.59951,2469.704,2019-6-17T14:29:39Z
2019-06-17T12:32:25Z,42.805,6.029,13.2953,4.59951,2469.713,2019-6-17T14:32:42Z
2019-06-17T12:35:28Z,42.805,6.029,13.2952,4.59950,2469.704,2019-6-17T14:35:45Z
2019-06-17T12:38:31Z,42.805,6.029,13.2953,4.59951,2469.69,2019-6-17T14:38:48Z
2019-06-17T12:41:34Z,42.805,6.029,13.2952,4.59950,2469.69,2019-6-17T14:41:51Z
2019-06-17T12:44:37Z,42.805,6.029,13.2952,4.59951,2469.704,2019-6-17T14:44:53Z
2019-06-17T12:47:40Z,42.805,6.029,13.2951,4.59951,2469.69,2019-6-17T14:47:56Z
2019-06-17T12:50:43Z,42.805,6.029,13.2952,4.59950,2469.667,2019-6-17T14:50:59Z
2019-06-17T12:53:46Z,42.805,6.029,13.2951,4.59952,2469.667,2019-6-17T14:54:02Z
2019-06-17T12:56:49Z,42.805,6.029,13.2954,4.59950,2469.667,2019-6-17T14:57:05Z
2019-06-17T12:59:52Z,42.805,6.029,13.2949,4.59951,2469.68,2019-6-17T15:00:08Z
2019-06-17T13:02:55Z,42.805,6.029,13.2948,4.59951,2469.68,2019-6-17T15:03:11Z
2019-06-17T13:05:58Z,42.805,6.029,13.2953,4.59950,2469.667,2019-6-17T15:06:14Z
2019-06-17T13:09:01Z,42.805,6.029,13.2950,4.59950,2469.657,2019-6-17T15:09:17Z
2019-06-17T13:12:04Z,42.805,6.029,13.2952,4.59951,2469.667,2019-6-17T15:12:20Z
2019-06-17T13:15:07Z,42.805,6.029,13.2949,4.59950,2469.667,2019-6-17T15:15:23Z
2019-06-17T13:18:10Z,42.805,6.029,13.2949,4.59951,2469.704,2019-6-17T15:18:26Z
2019-06-17T13:21:13Z,42.805,6.029,13.2952,4.59951,2469.68,2019-6-17T15:21:29Z
2019-06-17T13:24:16Z,42.805,6.029,13.2952,4.59950,2469.667,2019-6-17T15:24:32Z
2019-06-17T13:27:19Z,42.805,6.029,13.2951,4.59950,2469.69,2019-6-17T15:27:35Z
2019-06-17T13:30:22Z,42.805,6.029,13.2952,4.59949,2469.667,2019-6-17T15:30:38Z
2019-06-17T13:33:24Z,42.805,6.029,13.2952,4.59952,2469.68,2019-6-17T15:33:41Z
2019-06-17T13:36:27Z,42.805,6.029,13.2951,4.59951,2469.667,2019-6-17T15:36:44Z
2019-06-17T13:39:30Z,42.805,6.029,13.2949,4.59950,2469.657,2019-6-17T15:39:47Z
2019-06-17T13:42:33Z,42.805,6.029,13.2950,4.59951,2469.68,2019-6-17T15:42:50Z
2019-06-17T13:45:36Z,42.805,6.029,13.2950,4.59950,2469.667,2019-6-17T15:45:53Z
2019-06-17T13:48:39Z,42.805,6.029,13.2949,4.59950,2469.667,2019-6-17T15:48:56Z
2019-06-17T13:51:42Z,42.805,6.029,13.2952,4.59950,2469.69,2019-6-17T15:51:58Z
2019-06-17T13:54:45Z,42.805,6.029,13.2950,4.59950,2469.657,2019-6-17T15:55:01Z
2019-06-17T13:57:48Z,42.805,6.029,13.2951,4.59949,2469.704,2019-6-17T15:58:04Z
2019-06-17T14:00:51Z,42.805,6.029,13.2951,4.59950,2469.667,2019-6-17T16:01:07Z
2019-06-17T14:03:54Z,42.805,6.029,13.2947,4.59950,2469.657,2019-6-17T16:04:10Z
2019-06-17T14:06:57Z,42.805,6.029,13.2948,4.59951,2469.657,2019-6-17T16:07:13Z
2019-06-17T14:10:00Z,42.805,6.029,13.2949,4.59951,2469.643,2019-6-17T16:10:16Z
2019-06-17T14:13:03Z,42.805,6.029,13.2953,4.59951,2469.68,2019-6-17T16:13:19Z
2019-06-17T14:16:06Z,42.805,6.029,13.2949,4.59950,2469.62,2019-6-17T16:16:22Z
2019-06-17T14:19:09Z,42.805,6.029,13.2949,4.59951,2469.69,2019-6-17T16:19:25Z
2019-06-17T14:22:12Z,42.805,6.029,13.2953,4.59950,2469.634,2019-6-17T16:22:28Z
2019-06-17T14:25:15Z,42.805,6.029,13.2948,4.59949,2469.667,2019-6-17T16:25:31Z
2019-06-17T14:28:18Z,42.805,6.029,13.2953,4.59951,2469.667,2019-6-17T16:28:34Z
2019-06-17T14:31:21Z,42.805,6.029,13.2952,4.59950,2469.68,2019-6-17T16:31:37Z
2019-06-17T14:34:24Z,42.805,6.029,13.2952,4.59950,2469.68,2019-6-17T16:34:40Z
2019-06-17T14:37:27Z,42.805,6.029,13.2948,4.59950,2469.657,2019-6-17T16:37:43Z
2019-06-17T14:40:29Z,42.805,6.029,13.2952,4.59950,2469.643,2019-6-17T16:40:46Z
2019-06-17T14:43:32Z,42.805,6.029,13.2950,4.59950,2469.667,2019-6-17T16:43:49Z
2019-06-17T14:46:35Z,42.805,6.029,13.2947,4.59951,2469.634,2019-6-17T16:46:52Z
2019-06-17T14:49:38Z,42.805,6.029,13.2952,4.59950,2469.667,2019-6-17T16:49:55Z
2019-06-17T14:52:41Z,42.805,6.029,13.2954,4.59951,2469.667,2019-6-17T16:52:58Z
2019-06-17T14:55:44Z,42.805,6.029,13.2946,4.59950,2469.667,2019-6-17T16:56:00Z
2019-06-17T14:58:47Z,42.805,6.029,13.2953,4.59950,2469.667,2019-6-17T16:59:03Z
2019-06-17T15:01:50Z,42.805,6.029,13.2952,4.59951,2469.69,2019-6-17T17:02:06Z
2019-06-17T15:04:53Z,42.805,6.029,13.2953,4.59950,2469.667,2019-6-17T17:05:09Z
2019-06-17T15:07:56Z,42.805,6.029,13.2953,4.59951,2469.713,2019-6-17T17:08:12Z
2019-06-17T15:10:59Z,42.805,6.029,13.2947,4.59951,2469.704,2019-6-17T17:11:15Z